Middlesboro, KY

3:13 AM CDT on May 24, 2017 (GMT -0500)
Middlesboro

Weather History for K1A6 - December, 2012

Change the Weather History Date:

Tuesday, December 11, 2012

  Actual Average (KLOZ) Record (KLOZ)
Temperature  
Mean Temperature 34 °F -  
Max Temperature 39 °F 48 °F 75 °F (2007)
Min Temperature 30 °F 30 °F 1 °F (1957)
Degree Days  
Heating Degree Days 30    
Moisture  
Dew Point 31 °F    
Average Humidity 87    
Maximum Humidity 100    
Minimum Humidity 70    
Precipitation  
Precipitation 0.00 in - - ()
Sea Level Pressure  
Sea Level Pressure 30.10 in    
Wind  
Wind Speed 5 mph (NNW)    
Max Wind Speed 9 mph    
Max Gust Speed -    
Visibility 10 miles    
Events      
Averages and records for this station are not official NWS values.
T = Trace of Precipitation, MM = Missing Value Source: NWS Daily Summary

Daily Weather History Graph

Daily Weather History Graph

Search for Another Location

Airport or City:

Trip Planner

Search our weather history database for the weather conditions in past years. The results will help you decide how hot, cold, wet, or windy it might be!

Date:

Astronomy

Dec. 11, 2012 Rise Set
Actual Time 6:37 AM CST 4:19 PM CST
Civil Twilight 6:08 AM CST 4:48 PM CST
Nautical Twilight 5:36 AM CST 5:20 PM CST
Astronomical Twilight 5:04 AM CST 5:52 PM CST
Moon 4:32 AM CST (12/11) 2:56 PM CST (12/11)
Length of Visible Light 10h 39m
Length of Day
9h 42m
Waning Crescent, 4% of the Moon is Illuminated
Dec 11
Waning Crescent
Dec 13
New
Dec 19
First Quarter
Dec 28
Full
Jan 4
Last Quarter

Hourly Weather History & Observations

Time (CST) Temp. Windchill Dew Point Humidity Pressure Visibility Wind Dir Wind Speed Gust Speed Precip Events Conditions
12:15 AM 39.2 °F 33.6 °F 37.4 °F 93% 29.94 in 10.0 mi NW 8.1 mph - N/A   Overcast
12:35 AM 39.2 °F 33.6 °F 35.6 °F 87% 29.93 in 10.0 mi WNW 8.1 mph - N/A   Overcast
12:55 AM 37.4 °F 31.4 °F 35.6 °F 93% 29.93 in 10.0 mi WNW 8.1 mph - N/A   Overcast
1:15 AM 37.4 °F 33.8 °F 35.6 °F 93% 29.94 in 10.0 mi NW 4.6 mph - N/A   Overcast
1:35 AM 37.4 °F 34.9 °F 35.6 °F 93% 29.94 in 10.0 mi NW 3.5 mph - N/A   Overcast
1:55 AM 37.4 °F 32.1 °F 35.6 °F 93% 29.95 in 10.0 mi WNW 6.9 mph - N/A   Overcast
2:15 AM 37.4 °F 34.9 °F 33.8 °F 87% 29.95 in 10.0 mi NNW 3.5 mph - N/A   Overcast
2:35 AM 37.4 °F 31.4 °F 33.8 °F 87% 29.96 in 10.0 mi NW 8.1 mph - N/A   Overcast
2:55 AM 37.4 °F 31.4 °F 33.8 °F 87% 29.97 in 10.0 mi NW 8.1 mph - N/A   Overcast
3:15 AM 37.4 °F 30.8 °F 33.8 °F 87% 29.98 in 10.0 mi NW 9.2 mph - N/A   Overcast
3:35 AM 35.6 °F 29.9 °F 33.8 °F 93% 29.98 in 10.0 mi NW 6.9 mph - N/A   Overcast
3:55 AM 35.6 °F 30.7 °F 33.8 °F 93% 29.98 in 10.0 mi WNW 5.8 mph - N/A   Overcast
4:15 AM 35.6 °F 31.7 °F 33.8 °F 93% 29.99 in 10.0 mi NW 4.6 mph - N/A   Overcast
4:35 AM 35.6 °F - 33.8 °F 93% 29.99 in 10.0 mi Calm Calm - N/A   Overcast
4:55 AM 35.6 °F 30.7 °F 32.0 °F 87% 30.00 in 10.0 mi NNW 5.8 mph - N/A   Overcast
5:15 AM 35.6 °F 32.8 °F 33.8 °F 93% 30.01 in 10.0 mi NW 3.5 mph - N/A   Overcast
5:35 AM 35.6 °F 31.7 °F 33.8 °F 93% 30.03 in 10.0 mi WNW 4.6 mph - N/A   Overcast
5:55 AM 35.6 °F - 33.8 °F 93% 30.03 in 10.0 mi Calm Calm - N/A   Overcast
6:15 AM 35.6 °F 32.8 °F 32.0 °F 87% 30.04 in 10.0 mi NW 3.5 mph - N/A   Overcast
6:35 AM 35.6 °F 30.7 °F 32.0 °F 87% 30.04 in 10.0 mi NNW 5.8 mph - N/A   Overcast
6:55 AM 35.6 °F 31.7 °F 32.0 °F 87% 30.05 in 10.0 mi WNW 4.6 mph - N/A   Overcast
7:15 AM 35.6 °F 31.7 °F 32.0 °F 87% 30.07 in 10.0 mi West 4.6 mph - N/A   Overcast
7:35 AM 35.6 °F - 32.0 °F 87% 30.08 in 10.0 mi Calm Calm - N/A   Overcast
7:55 AM 35.6 °F - 32.0 °F 87% 30.09 in 10.0 mi Calm Calm - N/A   Overcast
8:15 AM 35.6 °F 31.7 °F 32.0 °F 87% 30.09 in 10.0 mi NNW 4.6 mph - N/A   Overcast
8:35 AM 35.6 °F 30.7 °F 32.0 °F 87% 30.10 in 10.0 mi NNE 5.8 mph - N/A   Overcast
8:55 AM 35.6 °F 30.7 °F 30.2 °F 81% 30.11 in 10.0 mi NNE 5.8 mph - N/A   Overcast
9:15 AM 35.6 °F 30.7 °F 30.2 °F 81% 30.13 in 10.0 mi North 5.8 mph - N/A   Overcast
9:35 AM 35.6 °F 31.7 °F 30.2 °F 81% 30.13 in 10.0 mi North 4.6 mph - N/A   Overcast
9:55 AM 35.6 °F 30.7 °F 30.2 °F 81% 30.13 in 10.0 mi North 5.8 mph - N/A   Overcast
10:15 AM 35.6 °F 30.7 °F 30.2 °F 81% 30.14 in 10.0 mi NNW 5.8 mph - N/A   Overcast
10:35 AM 35.6 °F 30.7 °F 30.2 °F 81% 30.13 in 10.0 mi NNW 5.8 mph - N/A   Overcast
10:55 AM 35.6 °F 31.7 °F 28.4 °F 75% 30.13 in 10.0 mi North 4.6 mph - N/A   Overcast
11:15 AM 35.6 °F 30.7 °F 28.4 °F 75% 30.12 in 10.0 mi NW 5.8 mph - N/A   Overcast
11:35 AM 35.6 °F 29.9 °F 30.2 °F 81% 30.11 in 10.0 mi NNE 6.9 mph - N/A   Overcast
11:55 AM 35.6 °F 29.9 °F 28.4 °F 75% 30.10 in 10.0 mi NE 6.9 mph - N/A   Overcast
12:15 PM 35.6 °F 29.2 °F 28.4 °F 75% 30.10 in 10.0 mi NE 8.1 mph - N/A   Overcast
12:35 PM 37.4 °F 34.9 °F 28.4 °F 70% 30.11 in 10.0 mi NE 3.5 mph - N/A   Overcast
12:55 PM 37.4 °F 32.8 °F 28.4 °F 70% 30.12 in 10.0 mi NNE 5.8 mph - N/A   Overcast
1:15 PM 37.4 °F - 28.4 °F 70% 30.12 in 10.0 mi Calm Calm - N/A   Overcast
1:35 PM 35.6 °F - 28.4 °F 75% 30.12 in 10.0 mi Calm Calm - N/A   Overcast
1:55 PM 37.4 °F - 28.4 °F 70% 30.12 in 10.0 mi Calm Calm - N/A   Overcast
2:15 PM 37.4 °F 34.9 °F 28.4 °F 70% 30.12 in 10.0 mi NE 3.5 mph - N/A   Overcast
2:35 PM 37.4 °F 32.8 °F 28.4 °F 70% 30.13 in 10.0 mi NE 5.8 mph - N/A   Overcast
2:55 PM 37.4 °F 33.8 °F 28.4 °F 70% 30.13 in 10.0 mi North 4.6 mph - N/A   Mostly Cloudy
3:15 PM 37.4 °F 32.8 °F 28.4 °F 70% 30.14 in 10.0 mi NE 5.8 mph - N/A   Mostly Cloudy
3:35 PM 37.4 °F 33.8 °F 28.4 °F 70% 30.14 in 10.0 mi NE 4.6 mph - N/A   Mostly Cloudy
3:55 PM 35.6 °F - 28.4 °F 75% 30.15 in 10.0 mi Calm Calm - N/A   Mostly Cloudy
4:15 PM 35.6 °F - 28.4 °F 75% 30.15 in 10.0 mi Calm Calm - N/A   Scattered Clouds
4:35 PM 35.6 °F - 28.4 °F 75% 30.16 in 10.0 mi Calm Calm - N/A   Clear
4:55 PM 33.8 °F - 28.4 °F 81% 30.16 in 10.0 mi Calm Calm - N/A   Clear
5:15 PM 33.8 °F - 28.4 °F 81% 30.16 in 10.0 mi Calm Calm - N/A   Clear
5:35 PM 33.8 °F - 28.4 °F 81% 30.17 in 10.0 mi Calm Calm - N/A   Clear
5:55 PM 32.0 °F - 28.4 °F 87% 30.18 in 10.0 mi Calm Calm - N/A   Clear
6:15 PM 30.2 °F - 30.2 °F 100% 30.19 in 10.0 mi Calm Calm - N/A   Clear
6:35 PM 30.2 °F - 30.2 °F 100% 30.18 in 10.0 mi Calm Calm - N/A   Clear
6:55 PM 30.2 °F - 30.2 °F 100% 30.18 in 10.0 mi Calm Calm - N/A   Clear
7:15 PM 30.2 °F - 30.2 °F 100% 30.19 in 7.0 mi Calm Calm - N/A   Clear
7:35 PM 30.2 °F - 30.2 °F 100% 30.19 in 10.0 mi Calm Calm - N/A   Clear
7:55 PM 30.2 °F - 30.2 °F 100% 30.19 in 10.0 mi Calm Calm - N/A   Clear
8:15 PM 30.2 °F - 30.2 °F 100% 30.20 in 10.0 mi Calm Calm - N/A   Clear
8:35 PM 30.2 °F - 30.2 °F 100% 30.19 in 10.0 mi Calm Calm - N/A   Clear
8:55 PM 30.2 °F - 30.2 °F 100% 30.20 in 7.0 mi Calm Calm - N/A   Clear
9:15 PM 30.2 °F - 30.2 °F 100% 30.20 in 10.0 mi Calm Calm - N/A   Clear
9:35 PM 30.2 °F - 30.2 °F 100% 30.20 in 10.0 mi Calm Calm - N/A   Clear
9:55 PM 30.2 °F - 30.2 °F 100% 30.21 in 10.0 mi Calm Calm - N/A   Clear
10:15 PM 30.2 °F - 30.2 °F 100% 30.22 in 7.0 mi Calm Calm - N/A   Clear
10:35 PM 30.2 °F - 30.2 °F 100% 30.23 in 10.0 mi Calm Calm - N/A   Clear
10:55 PM 30.2 °F - 30.2 °F 100% 30.22 in 7.0 mi Calm Calm - N/A   Clear
11:15 PM 30.2 °F - 30.2 °F 100% 30.23 in 7.0 mi Calm Calm - N/A   Clear
11:35 PM 30.2 °F - 30.2 °F 100% 30.23 in 7.0 mi Calm Calm - N/A   Clear
11:55 PM 30.2 °F - 30.2 °F 100% 30.23 in 7.0 mi Calm Calm - N/A   Clear